Weather in Kharashibir

Russia / Republic of Buryatia     51°05′55″N   107°59′21″E
temp.,
°C
wind,
m/s
gust,
m/s
humid.,
%
clouds,
%
prec.,
mm/h
press.,
hPa
HPBL,
m
17 april, sat
sat1723:000s34475 0.0 101858
02:00−2sse35535 0.0 101769
05:00−2sse34596 0.0 101556
08:00+3s25425 0.0 1013242
11:00+10wsw46315 0.0 10091167
14:00+13wsw46250 0.0 10061779
17:00+14wsw46252 0.0 10042221
20:00+7e11420 0.0 100410
18 april, sun
sun1823:00+5nne114695 0.0 100411
02:00+1wnw41190100 0.0 1010428
05:000nw498061 0.0 1013711
08:00−1nnw586592 0.0 1018948
11:00+1nw683645 0.0 10191257
14:00+3nnw57289 0.0 10191574
17:00+3nnw56274 0.0 10201537
20:00−2nnw24380 0.0 102396
19 april, mon
mon1923:00−4ne224645 0.0 102527
02:00−4se224695 0.0 102441
05:00−6se22505 0.0 102336
08:00−1sse23330 0.0 1020301
11:00+6s35270 0.0 1015844
14:00+11sw472938 0.0 10091244
17:00+14sw610300 0.0 10061818
20:00+7s34470 0.0 100660
20 april, tue
tue2023:00+7sse48455 0.0 1005140
02:00+2nw3771100 0.1 1010178
05:00−1nw2381100 0.0 101482
08:00+1nnw2460100 0.0 1015439
11:00+5n3437100 0.0 10151128
14:00+6nne5438100 0.0 10131199
17:00+4nne5551100 0.0 1013909
20:00+1n3567100 0.0 1015385
21 april, wed
wed2123:00−1nne237298 0.0 1015100
02:00−3n2360100 0.0 101665
05:00−4nnw2457100 0.0 101695
08:00−2n3546100 0.0 1016409
11:00+3n3435100 0.0 10131033
14:00+6n443599 0.0 10111486
17:00+5n554299 0.0 10111411
20:000n486177 0.0 1013480